Wind_Speed
11 14 19 20 22 19 20 23 22 22 21 19 16 14 14 12 11 10 10 10 9 9 9 8 5 3 2 3 2 3 3 2 1 2 3 6 10 10 6 7 9 13 14 14 16 17 16 17 21
13 16 18 20 23 19 17 20 25 22 21 19 18 16 16 14 13 11 11 11 11 10 10 8 5 3 2 3 4 3 3 3 2 3 6 9 10 8 7 8 11 14 14 15 16 18 18 19 21
15 16 18 20 23 21 21 24 22 23 22 21 20 18 17 16 15 14 12 12 11 11 10 9 6 3 4 5 6 6 6 5 5 6 8 10 10 9 8 10 13 15 16 16 18 21 21 21 23
19 20 21 21 23 19 22 26 21 23 23 22 20 19 19 18 17 15 14 13 12 11 10 8 6 4 5 7 8 9 8 7 7 8 10 12 11 10 11 12 14 17 18 19 21 24 24 24 24
22 24 21 20 21 19 20 25 25 25 22 20 20 20 20 20 18 17 16 15 13 12 10 8 5 3 5 8 9 10 10 10 10 11 12 13 13 13 14 15 16 19 21 22 24 26 26 26 26
24 25 22 21 23 22 23 25 26 24 21 19 18 17 17 19 19 18 18 17 15 13 10 8 5 5 5 7 8 10 11 12 12 13 14 15 14 15 16 18 19 22 24 25 26 27 28 28 28
27 25 24 23 24 26 26 26 24 21 19 17 17 17 18 19 19 19 18 17 15 13 10 8 6 5 4 5 7 9 10 12 15 16 16 16 15 17 19 21 23 25 26 27 27 29 29 28 28
26 28 26 24 25 26 25 22 21 19 17 17 18 19 18 18 19 18 17 17 15 13 11 8 7 6 5 6 8 10 12 14 17 18 18 17 18 19 21 24 26 27 28 29 29 30 30 29 28
26 25 27 25 25 25 23 21 22 20 19 19 20 19 17 17 18 17 17 17 16 14 12 10 9 9 10 10 11 12 13 15 18 18 18 18 20 22 24 27 29 30 31 31 31 31 30 30 30
26 24 25 27 28 26 26 26 26 23 22 21 21 19 18 19 18 17 18 18 16 14 13 13 12 13 14 15 14 13 14 17 18 17 18 19 20 23 26 29 30 30 31 31 31 31 31 31 32
27 27 28 31 27 25 27 29 29 25 23 24 23 18 18 20 18 17 19 19 17 16 16 16 15 15 17 18 18 16 16 19 19 17 18 20 22 24 26 28 29 29 31 31 31 32 32 32 33
28 28 28 27 23 20 23 27 27 25 26 26 22 19 20 19 18 17 19 20 18 18 18 18 17 17 18 18 19 19 19 22 20 18 19 20 22 23 27 30 32 32 32 32 32 32 32 33 34
27 28 28 28 25 21 18 20 22 23 26 22 20 22 21 19 18 17 18 20 19 20 21 22 21 21 21 20 20 22 24 25 22 20 21 21 21 24 28 31 32 32 31 31 31 31 33 34 35
27 26 25 24 22 20 17 15 16 20 21 20 20 20 20 19 17 17 19 22 23 24 25 25 25 26 29 29 29 29 30 29 25 23 23 22 22 25 29 32 33 32 31 31 32 32 33 34 35
28 26 24 21 19 17 14 14 15 17 16 16 15 14 13 15 16 20 23 26 30 31 30 31 30 31 32 31 31 31 31 29 27 25 24 25 24 27 30 32 34 33 33 32 31 33 34 36 37
29 27 25 21 18 17 15 14 17 14 13 12 11 11 13 17 21 25 29 31 32 31 30 30 30 30 30 30 29 29 28 27 25 25 27 28 28 30 32 33 35 34 34 34 33 33 35 37 37
30 28 27 23 19 17 14 15 16 15 15 14 15 17 20 24 28 32 34 32 31 30 29 27 26 27 28 29 27 26 26 25 26 28 30 31 32 34 34 35 36 36 36 36 35 36 37 39 39
30 29 27 24 20 18 16 16 17 18 18 19 21 23 26 29 32 33 32 32 32 31 30 29 27 27 28 28 27 27 26 28 30 32 33 34 35 37 38 39 39 39 39 40 40 40 41 42 43
30 30 28 26 23 20 19 19 20 19 20 21 22 25 26 27 30 30 30 32 32 31 30 29 28 28 27 29 29 30 30 32 34 36 37 37 38 40 41 43 43 43 43 43 45 45 44 44 46
31 31 30 27 24 22 22 23 23 22 22 23 24 24 22 22 24 24 24 24 26 28 28 29 30 31 31 31 31 31 32 35 38 40 42 43 43 43 45 46 48 49 48 47 47 47 46 45 46
27 27 27 26 23 22 23 24 24 23 22 22 22 21 19 20 20 21 21 23 25 28 29 30 31 32 33 34 33 33 34 38 42 44 46 48 48 48 48 50 51 53 53 52 51 52 52 51 50
24 24 23 22 21 19 20 21 21 20 18 19 19 19 18 19 19 19 20 22 23 25 27 28 30 31 33 34 34 34 37 40 45 48 50 52 52 53 54 55 56 57 57 56 55 55 55 55 54
20 21 20 20 18 17 17 17 15 15 15 16 17 18 18 19 20 20 21 23 24 25 26 27 27 28 29 31 33 35 37 42 46 49 52 54 55 57 58 59 59 60 61 61 60 60 59 59 59
17 18 18 17 17 17 17 17 14 14 15 17 18 20 20 21 22 24 25 27 28 30 31 32 32 33 33 35 36 39 41 44 47 50 53 55 57 59 60 61 61 62 62 63 64 65 64 63 62
15 15 15 16 16 17 17 17 16 17 18 20 23 24 26 27 28 29 31 33 34 36 37 38 39 40 41 42 43 44 46 48 51 53 55 57 58 59 60 62 63 64 65 65 67 68 67 66 66
14 14 15 16 16 16 18 18 20 22 24 27 29 31 32 34 35 36 37 38 39 40 40 41 43 43 44 46 48 51 53 55 56 57 58 59 61 61 63 65 67 68 69 70 71 72 71 72 73
16 17 17 18 19 20 22 23 24 27 29 32 34 35 37 38 38 39 39 39 39 40 40 41 43 44 45 47 48 51 53 54 55 56 59 61 62 63 64 65 66 68 70 72 73 74 74 74 73
20 21 22 24 26 28 28 28 28 31 32 37 40 41 41 41 39 38 38 39 40 41 42 44 47 48 49 50 51 52 53 55 56 57 59 60 62 64 65 66 68 70 73 75 77 76 73 72 69
24 25 27 30 31 32 33 26 26 28 31 36 39 40 40 41 43 43 45 46 48 49 51 53 54 54 54 54 53 52 53 55 56 58 59 61 63 64 66 69 71 74 75 76 78 75 73 70 66
28 30 31 32 32 33 36 27 27 31 35 39 42 43 44 46 48 50 51 52 53 54 54 53 52 50 49 50 51 52 54 57 60 62 63 64 66 67 68 71 73 74 74 76 77 76 72 67 61
Wind_Direction
225 187 187 196 194 202 204 207 200 192 192 196 199 204 208 216 223 225 221 216 212 209 208 208 211 217 252 279 226 213 218 223 272 341 347 332 327 328 333 335 342 345 344 349 351 346 343 342 345
195 183 190 194 190 191 198 200 195 194 197 202 206 209 213 219 224 227 220 214 212 208 208 214 220 243 282 268 221 231 251 254 270 316 329 327 326 323 320 329 345 347 347 349 344 339 334 337 342
186 183 187 188 182 192 201 196 196 201 201 207 210 210 213 218 224 228 223 217 211 210 212 221 225 254 277 256 240 258 271 262 274 309 319 317 320 316 315 329 345 344 345 342 337 336 331 331 335
192 183 177 180 187 204 210 205 206 200 201 209 212 214 217 219 222 225 226 221 216 215 218 226 233 265 266 253 249 258 266 266 276 298 306 308 311 309 312 323 337 339 337 335 333 333 330 329 331
190 184 179 180 188 194 185 182 190 202 209 212 215 218 222 224 225 229 230 224 222 225 229 229 243 294 274 256 253 260 267 271 280 291 299 305 305 307 311 315 325 331 329 328 327 328 329 326 329
187 184 176 180 187 186 183 188 200 205 208 214 221 229 231 230 232 236 233 224 222 227 235 242 263 307 292 256 253 261 272 276 282 290 299 304 303 307 308 311 315 319 322 320 320 322 324 324 327
188 184 178 184 189 188 190 200 208 208 214 222 226 232 233 234 237 241 236 226 224 228 236 246 270 300 284 239 255 272 276 280 286 293 299 301 302 305 308 307 310 313 315 314 313 314 318 320 321
191 189 182 186 192 194 198 207 215 215 220 230 233 236 238 237 239 241 236 230 227 228 236 248 264 275 259 254 268 274 278 284 290 294 298 298 299 304 307 306 307 309 310 309 308 310 314 314 314
192 192 194 195 200 204 210 216 223 226 229 237 241 244 248 245 243 241 236 232 231 233 241 250 260 261 252 254 263 273 287 299 296 294 296 298 300 306 308 306 306 307 307 307 307 308 310 309 308
192 193 198 206 213 216 222 228 232 233 237 244 247 248 251 248 243 238 235 235 237 242 247 255 263 262 255 256 262 276 299 308 302 295 297 301 306 309 311 310 309 308 308 308 307 307 307 306 306
194 199 204 205 216 222 227 232 235 237 242 244 244 246 247 242 237 236 236 238 244 251 256 259 261 262 260 260 263 276 297 308 304 296 298 303 310 317 321 321 320 316 313 309 308 308 307 306 306
198 206 215 217 220 227 227 230 234 235 237 240 242 242 240 232 228 232 236 241 249 257 259 262 263 261 262 263 264 273 289 304 304 293 293 301 312 322 327 331 329 324 320 315 310 308 307 307 306
202 209 216 224 230 235 227 221 225 229 235 237 238 237 232 225 228 236 245 251 255 259 260 261 259 259 265 269 269 277 286 296 292 282 286 298 311 321 327 329 329 325 320 318 316 312 310 309 309
204 209 214 219 222 227 222 219 221 229 231 231 231 228 224 226 238 249 257 264 264 262 263 265 263 262 265 268 272 279 282 282 277 277 285 296 305 315 323 325 324 322 318 314 314 314 313 312 309
205 209 214 216 215 218 211 210 217 223 222 224 223 221 228 245 258 264 266 267 267 267 266 266 267 269 269 268 269 273 274 270 269 273 281 287 295 305 313 317 321 321 318 316 313 310 310 310 310
208 213 215 215 215 214 209 206 214 213 210 210 214 222 237 251 259 264 265 266 267 269 269 267 269 272 274 273 273 273 268 262 263 271 279 283 288 296 302 309 313 317 319 318 315 312 311 312 312
211 217 215 210 210 207 198 197 206 205 206 213 224 235 245 254 259 262 265 268 269 273 275 273 272 272 272 271 272 273 269 263 265 270 276 280 283 288 294 299 304 309 312 314 315 314 312 311 311
213 217 216 208 205 201 190 192 208 211 217 228 239 249 257 261 263 264 266 268 272 274 275 274 270 267 267 268 270 271 265 260 263 268 275 281 283 286 290 293 296 300 304 308 311 312 311 310 310
213 215 214 210 208 207 202 206 221 226 234 243 251 255 259 261 261 263 264 266 269 270 270 270 269 267 269 271 271 267 261 259 262 267 275 280 284 288 290 291 293 296 299 302 304 305 307 309 310
210 212 214 214 214 218 224 228 231 238 246 252 254 256 257 258 260 262 263 265 267 268 268 267 267 267 269 269 268 264 258 258 261 266 271 277 283 288 291 291 289 290 291 293 295 298 299 300 304
205 205 207 213 217 226 234 239 241 243 247 246 245 246 248 253 257 260 263 264 264 265 266 266 266 266 267 270 272 269 263 263 265 269 273 276 280 283 287 288 287 287 289 292 294 296 298 299 302
195 198 202 210 218 225 234 240 241 240 239 238 243 249 255 260 266 270 272 273 272 272 272 271 270 268 266 266 265 263 261 261 264 268 272 275 279 282 286 287 287 287 289 291 293 294 295 296 298
185 191 198 206 210 213 225 232 230 236 239 243 250 255 260 266 270 272 273 274 274 274 274 273 271 270 270 270 268 266 264 264 267 271 275 278 281 283 286 288 288 290 292 292 293 294 294 296 297
183 193 198 204 207 211 222 232 237 246 253 259 263 267 271 273 276 278 278 277 276 276 276 276 276 276 276 274 273 273 274 275 276 277 279 281 283 286 288 290 290 291 291 292 291 292 292 293 293
193 200 207 210 213 220 227 237 246 250 258 266 271 274 277 280 281 282 282 280 278 276 275 274 274 275 276 276 277 277 277 277 279 280 281 282 284 286 286 286 287 288 288 288 288 289 289 290 291
209 216 225 229 230 233 237 245 251 257 261 264 267 270 273 276 277 277 276 276 276 277 277 277 277 279 280 282 283 283 283 282 281 281 281 282 283 284 285 286 288 288 288 288 288 288 289 290 291
227 235 239 248 249 253 257 260 261 262 265 267 267 269 272 274 277 278 279 280 282 283 283 283 283 284 284 285 285 285 284 283 283 282 281 280 281 281 282 283 283 284 284 285 286 289 291 292 293
244 251 259 261 262 262 261 268 276 274 275 272 273 274 276 278 282 287 291 292 290 287 286 285 284 284 284 285 283 282 281 281 281 281 282 281 281 281 281 280 281 281 282 283 285 287 289 291 294
253 257 261 264 265 269 270 273 277 282 279 280 280 281 287 292 295 296 294 291 289 289 289 288 287 286 285 283 282 282 281 281 281 279 278 279 280 280 279 279 280 282 284 285 286 288 289 290 292
258 262 265 272 275 276 279 283 289 291 291 290 291 293 295 296 295 293 291 291 291 290 288 287 284 282 281 280 279 279 279 279 280 280 280 280 280 279 279 280 281 282 284 285 287 288 288 288 288
Height
5854 5854 5859 5863 5867 5871 5874 5878 5880 5882 5885 5887 5889 5891 5891 5891 5892 5894 5893 5891 5891 5890 5891 5892 5891 5891 5891 5891 5891 5891 5891 5890 5889 5888 5887 5886 5884 5881 5879 5877 5876 5874 5872 5870 5867 5864 5862 5859 5856
5853 5854 5858 5862 5866 5870 5874 5875 5878 5881 5884 5886 5887 5889 5889 5889 5890 5890 5890 5890 5890 5890 5891 5891 5891 5891 5891 5891 5891 5891 5890 5890 5889 5887 5886 5884 5883 5881 5879 5877 5874 5872 5870 5867 5864 5862 5859 5856 5853
5851 5852 5857 5861 5864 5868 5872 5874 5876 5880 5882 5883 5885 5886 5887 5889 5889 5889 5889 5889 5889 5890 5890 5890 5891 5891 5891 5891 5890 5890 5889 5888 5887 5886 5885 5883 5882 5880 5878 5875 5872 5870 5868 5865 5862 5859 5856 5853 5849
5851 5852 5857 5861 5863 5867 5869 5871 5874 5878 5879 5882 5884 5885 5886 5887 5888 5888 5888 5889 5889 5889 5889 5890 5889 5889 5889 5889 5888 5888 5887 5887 5886 5884 5883 5882 5880 5878 5875 5872 5870 5868 5866 5863 5860 5857 5853 5850 5845
5850 5852 5856 5860 5863 5866 5867 5869 5873 5875 5878 5880 5881 5883 5884 5885 5885 5885 5886 5887 5888 5888 5889 5888 5888 5887 5887 5886 5886 5886 5886 5885 5884 5883 5881 5879 5878 5875 5872 5870 5868 5866 5864 5861 5857 5854 5850 5847 5842
5849 5851 5857 5860 5863 5865 5867 5868 5871 5874 5876 5879 5880 5881 5882 5883 5883 5884 5885 5886 5886 5886 5887 5887 5886 5886 5885 5885 5885 5885 5885 5883 5882 5880 5878 5877 5875 5873 5871 5868 5866 5864 5861 5858 5854 5851 5847 5843 5839
5847 5850 5855 5859 5862 5864 5866 5868 5871 5872 5875 5878 5879 5880 5880 5880 5881 5882 5884 5884 5884 5884 5885 5885 5885 5885 5884 5884 5884 5884 5883 5881 5880 5878 5877 5875 5873 5871 5868 5866 5864 5861 5858 5854 5851 5847 5844 5840 5836
5844 5849 5853 5858 5861 5862 5864 5867 5869 5870 5873 5876 5877 5877 5878 5879 5880 5880 5881 5882 5882 5883 5884 5884 5884 5884 5883 5883 5882 5881 5880 5879 5878 5876 5874 5872 5870 5868 5866 5863 5860 5857 5854 5850 5846 5843 5840 5836 5832
5842 5848 5852 5856 5859 5860 5862 5865 5866 5868 5871 5872 5873 5875 5876 5876 5877 5878 5879 5880 5881 5881 5882 5882 5882 5881 5881 5880 5880 5879 5878 5876 5875 5873 5871 5869 5868 5866 5864 5860 5857 5853 5850 5846 5842 5838 5835 5831 5828
5840 5846 5851 5854 5856 5858 5860 5863 5865 5866 5868 5869 5870 5872 5873 5873 5875 5876 5877 5878 5879 5879 5879 5879 5879 5879 5878 5878 5877 5876 5875 5874 5872 5871 5869 5867 5865 5863 5860 5856 5852 5849 5845 5841 5837 5834 5830 5826 5823
5838 5844 5848 5850 5853 5856 5858 5860 5862 5864 5866 5867 5867 5869 5869 5871 5873 5875 5876 5876 5877 5877 5877 5877 5877 5876 5876 5875 5875 5873 5872 5870 5869 5868 5866 5864 5862 5859 5855 5851 5848 5844 5840 5836 5833 5829 5825 5822 5818
5837 5841 5844 5847 5849 5853 5855 5857 5859 5861 5862 5863 5864 5866 5866 5868 5870 5872 5873 5873 5874 5874 5874 5874 5874 5873 5872 5872 5871 5870 5868 5867 5866 5865 5863 5860 5858 5855 5851 5848 5844 5841 5836 5832 5828 5825 5821 5817 5813
5834 5838 5841 5844 5847 5851 5853 5854 5856 5858 5858 5861 5862 5863 5864 5865 5867 5870 5870 5870 5870 5870 5870 5869 5870 5869 5868 5868 5867 5866 5865 5864 5863 5861 5859 5856 5854 5851 5848 5844 5840 5836 5832 5828 5824 5820 5816 5812 5808
5831 5835 5839 5842 5844 5848 5850 5852 5854 5855 5856 5858 5860 5861 5862 5863 5865 5867 5867 5866 5865 5865 5864 5863 5864 5865 5864 5863 5862 5861 5860 5859 5857 5856 5855 5852 5849 5847 5844 5840 5835 5831 5827 5823 5819 5815 5811 5807 5803
5829 5833 5837 5839 5842 5846 5848 5850 5851 5852 5855 5857 5858 5859 5861 5862 5863 5862 5862 5861 5860 5859 5860 5858 5859 5858 5858 5857 5856 5856 5855 5854 5853 5851 5849 5847 5844 5841 5838 5834 5831 5827 5822 5818 5814 5810 5806 5802 5797
5826 5830 5835 5838 5840 5843 5847 5848 5849 5852 5854 5856 5857 5858 5858 5858 5858 5857 5856 5855 5854 5853 5854 5854 5854 5853 5851 5850 5850 5850 5849 5848 5848 5846 5843 5841 5838 5835 5832 5829 5826 5823 5817 5813 5809 5804 5800 5795 5791
5823 5827 5832 5836 5838 5841 5844 5846 5847 5849 5850 5852 5853 5853 5853 5854 5853 5851 5850 5849 5849 5849 5848 5848 5848 5848 5846 5845 5844 5844 5843 5843 5841 5839 5836 5834 5832 5829 5827 5823 5819 5816 5812 5807 5803 5799 5794 5789 5784
5821 5825 5829 5833 5836 5840 5842 5843 5843 5843 5846 5847 5848 5849 5850 5850 5848 5847 5847 5846 5846 5845 5844 5843 5843 5842 5840 5838 5838 5838 5837 5836 5834 5831 5829 5827 5825 5822 5819 5816 5811 5808 5806 5801 5797 5793 5789 5784 5778
5817 5822 5826 5831 5835 5838 5840 5840 5838 5840 5842 5844 5846 5845 5844 5844 5842 5841 5841 5840 5840 5840 5839 5839 5838 5838 5835 5833 5832 5831 5830 5828 5827 5825 5822 5820 5817 5814 5812 5809 5805 5801 5798 5794 5790 5785 5781 5777 5771
5813 5819 5824 5829 5833 5835 5836 5835 5835 5838 5839 5839 5839 5839 5839 5838 5837 5835 5835 5834 5834 5834 5834 5833 5832 5831 5828 5826 5824 5823 5821 5820 5817 5816 5814 5812 5810 5808 5805 5801 5797 5792 5788 5784 5779 5774 5769 5766 5761
5811 5816 5821 5825 5829 5831 5830 5830 5831 5833 5834 5834 5834 5834 5833 5832 5831 5830 5829 5829 5828 5828 5827 5826 5824 5822 5821 5820 5819 5817 5816 5815 5812 5810 5807 5804 5801 5798 5795 5791 5787 5783 5779 5776 5772 5767 5764 5759 5754
5808 5813 5818 5823 5826 5826 5826 5826 5827 5828 5829 5830 5829 5829 5828 5827 5826 5825 5825 5824 5824 5823 5821 5820 5818 5816 5814 5812 5810 5808 5807 5806 5803 5799 5796 5793 5790 5787 5784 5781 5777 5773 5770 5766 5763 5758 5754 5749 5744
5807 5811 5816 5820 5822 5823 5822 5824 5826 5825 5825 5825 5824 5823 5822 5822 5821 5821 5820 5819 5818 5817 5816 5814 5811 5809 5806 5804 5802 5800 5798 5795 5793 5791 5788 5784 5781 5778 5775 5772 5768 5765 5761 5757 5753 5749 5744 5740 5735
5806 5810 5814 5817 5820 5821 5820 5821 5823 5822 5822 5821 5820 5818 5818 5818 5817 5816 5815 5814 5813 5812 5810 5808 5806 5804 5801 5798 5796 5793 5791 5789 5787 5784 5780 5776 5773 5770 5767 5763 5758 5754 5750 5746 5741 5737 5732 5728 5723
5805 5809 5813 5815 5818 5819 5818 5819 5821 5819 5818 5817 5815 5814 5813 5812 5811 5810 5808 5808 5806 5805 5803 5801 5798 5796 5793 5791 5788 5786 5784 5781 5778 5774 5770 5766 5762 5759 5754 5749 5745 5741 5736 5732 5727 5722 5719 5714 5709
5803 5806 5810 5812 5814 5815 5815 5817 5817 5815 5813 5811 5809 5807 5806 5804 5802 5801 5800 5798 5796 5795 5793 5791 5788 5786 5784 5781 5778 5776 5773 5769 5765 5761 5757 5753 5749 5744 5739 5735 5730 5725 5720 5716 5711 5707 5704 5700 5695
5800 5803 5805 5807 5808 5810 5810 5810 5811 5809 5807 5803 5801 5799 5798 5797 5795 5793 5790 5789 5787 5785 5783 5780 5777 5775 5772 5768 5764 5761 5758 5754 5750 5746 5742 5737 5733 5729 5725 5720 5715 5710 5705 5700 5695 5692 5689 5684 5679
5796 5798 5800 5800 5800 5801 5803 5803 5802 5800 5797 5793 5791 5789 5788 5786 5785 5783 5781 5780 5777 5774 5772 5769 5766 5763 5758 5754 5750 5746 5742 5739 5735 5732 5728 5724 5719 5714 5709 5705 5699 5695 5690 5684 5679 5676 5673 5667 5663
5791 5792 5791 5791 5792 5792 5793 5799 5796 5792 5789 5785 5783 5782 5781 5779 5776 5774 5771 5768 5764 5761 5758 5755 5751 5747 5742 5738 5734 5730 5726 5722 5719 5715 5711 5708 5704 5699 5695 5689 5685 5680 5675 5669 5663 5660 5657 5652 5648
5785 5785 5784 5785 5783 5783 5783 5792 5789 5784 5781 5780 5777 5776 5773 5770 5766 5763 5759 5755 5752 5749 5745 5741 5736 5731 5727 5723 5719 5714 5710 5706 5702 5698 5694 5691 5688 5684 5679 5674 5669 5666 5660 5654 5648 5644 5641 5638 5635